WB7UVH Weather Reports


Display with metric or nautical units.
time (UTC)temp
F
wind
direction
speed
MPH
gust
MPH
rain 1hr
in
rain 24hr
in
rain mn
in
humidity
%
barometer
mb
20260502224503 68 259 2.0 8.0 0.00 0.01 0.01 68 1016.6
20260502223004 67 257 0.0 7.0 0.00 0.01 0.01 68 1017.0
20260502221503 66 239 1.0 7.0 0.00 0.01 0.01 68 1017.1
20260502220003 67 198 0.0 9.0 0.00 0.01 0.01 69 1017.3
20260502214504 65 249 2.0 8.0 0.00 0.01 0.01 70 1017.5
20260502210004 63 252 3.0 10.0 0.00 0.01 0.01 71 1018.6
20260502204503 61 248 7.0 12.0 0.00 0.01 0.01 75 1018.7
20260502203004 62 268 5.0 12.0 0.00 0.01 0.01 72 1018.7
20260502201503 64 271 1.0 7.0 0.00 0.01 0.01 71 1019.1
20260502200003 62 243 0.0 3.0 0.00 0.01 0.01 73 1019.2
20260502194504 61 249 6.0 12.0 0.00 0.01 0.01 75 1019.5
20260502193003 60 258 3.0 10.0 0.00 0.01 0.01 77 1019.6
20260502191504 59 235 6.0 13.0 0.00 0.01 0.01 77 1019.8
20260502184503 60 261 2.0 9.0 0.00 0.01 0.01 77 1019.3
20260502183003 60 125 1.0 7.0 0.00 0.01 0.01 81 1019.4
20260502181503 58 188 1.0 8.0 0.00 0.01 0.01 83 1020.1
20260502163003 54 238 0.0 0.0 0.00 0.01 0.01 87 1020.7
20260502151503 52 226 0.0 0.0 0.00 0.01 0.01 90 1020.9
20260502123003 51 236 3.0 8.0 0.00 0.01 0.01 92 1020.5
20260502121503 51 252 0.0 1.0 0.00 0.01 0.01 93 1020.5
20260502114503 51 257 3.0 7.0 0.00 0.01 0.01 93 1020.2
20260502113003 51 269 1.0 3.0 0.00 0.01 0.01 93 1020.2
20260502111504 51 236 1.0 8.0 0.00 0.01 0.01 93 1020.2
20260502104504 51 275 0.0 0.0 0.00 0.01 0.01 93 1020.2
20260502103003 51 275 0.0 1.0 0.00 0.01 0.01 93 1020.3
20260502101504 51 275 0.0 3.0 0.00 0.01 0.01 92 1020.6
20260502091503 53 249 2.0 8.0 0.01 0.01 0.01 90 1021.4
20260502071504 55 223 2.0 6.0 0.00 0.00 0.00 84 1021.3
20260502070003 55 248 2.0 3.0 0.00 0.00 0.00 84 1021.0
20260502064504 56 233 0.0 6.0 0.00 0.00 0.00 83 1020.8
20260502063004 56 248 2.0 3.0 0.00 0.00 0.00 81 1020.9
20260502060003 58 250 5.0 10.0 0.00 0.00 0.00 79 1020.8
20260502054503 59 242 1.0 3.0 0.00 0.00 0.00 77 1020.7
20260502051504 59 269 2.0 12.0 0.00 0.00 0.00 76 1020.7
20260502050004 60 259 3.0 12.0 0.00 0.00 0.00 75 1020.6
20260502044505 61 257 3.0 8.0 0.00 0.00 0.00 74 1020.3
20260502043005 61 259 1.0 9.0 0.00 0.00 0.00 74 1020.0
20260502041505 62 274 3.0 14.0 0.00 0.00 0.00 73 1019.7
20260502034505 64 245 2.0 8.0 0.00 0.00 0.00 70 1019.3
20260502033006 65 250 4.0 8.0 0.00 0.00 0.00 65 1018.9
20260502031505 65 267 1.0 3.0 0.00 0.00 0.00 65 1018.9
20260502030004 66 257 0.0 6.0 0.00 0.00 0.00 63 1018.8
20260502024505 66 228 2.0 9.0 0.00 0.00 0.00 63 1018.5
20260502023005 67 271 2.0 8.0 0.00 0.00 0.00 65 1018.5
20260502021505 68 257 0.0 5.0 0.00 0.00 0.00 68 1018.4
20260502020005 69 256 0.0 0.0 0.00 0.00 0.00 66 1018.3
20260502014504 69 257 0.0 8.0 0.00 0.00 0.00 60 1018.2
20260502011504 70 225 2.0 9.0 0.00 0.00 0.00 57 1018.1
20260502010004 70 290 2.0 8.0 0.00 0.00 0.00 57 1018.1
20260502004505 71 228 1.0 8.0 0.00 0.00 0.00 54 1018.1
20260502003004 71 281 0.0 7.0 0.00 0.00 0.00 55 1018.1
20260502001505 71 245 0.0 3.0 0.00 0.00 0.00 53 1018.1
20260502000005 71 260 0.0 8.0 0.00 0.00 0.00 55 1018.0
20260501233005 70 264 0.0 9.0 0.00 0.00 0.00 55 1018.1
20260501231505 71 244 0.0 9.0 0.00 0.00 0.00 54 1018.2
20260501230005 71 270 1.0 8.0 0.00 0.00 0.00 52 1018.4